Starlink 35522

operational
NORAD ID: 66341 Int'l Des: 2025-253 Owner: SPXS Country: US Constellation: starlink
NOTLE

About Starlink 35522

Description loading...

Live Position

Loading 3D Globe...

Upcoming Passes

Altitude History

Altitude vs Time

uPlot chart will show altitude changes over time

Two-Line Element Set

1 66341U 25253Y 25354.89970348 .00053645 00000-0 12788-2 0 9995
2 66341 43.0031 298.4208 0001657 260.8200 99.2469 15.40785914 8183
Epoch: Dec 20, 2025 • Age: 23 hours

Current Status

Altitude 452.9 km
Velocity 7.64 km/s
Sub-Earth Point -36.03°S, 127.03°E
Launch Date Nov 6, 2025
Age 0.1 years
Type internet

Technical Details

Classification Payload
Mass 575.00 kg
Dry Mass 530.00 kg
Total Mass 575.00 kg
Length 0.30 m
Diameter 4.10 m
Span 29.00 m
Shape Box + pan
Manufacturer SPXS
Bus Type Starlink V2MO
Phase Status In Orbit
Owner/State SPXS/US

Large Constellations

Loading constellations...